• In Lithuania
  • List of Countries
  • For 7 days
  • Water Temperature
  • Satellite Maps
  • Weather Map
  • Weather Widgets
  • user-avatar
    Login

    Hourly Weather Kalinowa

    Today, 22 July, Sunday

    Time Temperature Precipitation Wind Pressure Humidity
    00:00 +20°C° 0 mm 1 mps 745 mmHg 73%
    01:00 +19°C° 0 mm 1 mps 744 mmHg 75%
    02:00 +19°C° 0 mm 1 mps 744 mmHg 76%
    03:00 +18°C° 0 mm 1 mps 744 mmHg 78%
    04:00 +18°C° 0 mm 1 mps 744 mmHg 79%
    05:00 +19°C° 0 mm 1 mps 745 mmHg 76%
    06:00 +21°C° 0 mm 1 mps 745 mmHg 73%
    07:00 +21°C° 0 mm 2 mps 745 mmHg 70%
    08:00 +23°C° 0 mm 2 mps 745 mmHg 65%
    09:00 +25°C° 0 mm 2 mps 745 mmHg 60%
    10:00 +26°C° 0 mm 3 mps 745 mmHg 55%
    11:00 +27°C° 0 mm 3 mps 745 mmHg 53%
    12:00 +28°C° 0 mm 3 mps 745 mmHg 50%
    13:00 +28°C° 0 mm 3 mps 745 mmHg 47%
    14:00 +28°C° 0 mm 3 mps 745 mmHg 47%
    15:00 +28°C° 0 mm 3 mps 745 mmHg 48%
    16:00 +28°C° 0 mm 3 mps 745 mmHg 48%
    17:00 +27°C° 0 mm 3 mps 745 mmHg 54%
    18:00 +26°C° 0 mm 3 mps 745 mmHg 61%
    19:00 +24°C° 0 mm 2 mps 745 mmHg 67%
    20:00 +23°C° 0 mm 2 mps 745 mmHg 70%
    21:00 +21°C° 0 mm 2 mps 745 mmHg 74%
    22:00 +20°C° 0 mm 2 mps 745 mmHg 77%
    23:00 +19°C° 0 mm 2 mps 746 mmHg 78%

    Tomorrow, 23 July, Monday

    Time Temperature Precipitation Wind Pressure Humidity
    00:00 +19°C° 0 mm 2 mps 746 mmHg 79%
    01:00 +19°C° 0 mm 2 mps 746 mmHg 80%
    02:00 +18°C° 0 mm 2 mps 746 mmHg 81%
    03:00 +18°C° 0 mm 2 mps 746 mmHg 81%
    04:00 +18°C° 0 mm 2 mps 746 mmHg 82%
    05:00 +19°C° 0 mm 2 mps 746 mmHg 80%
    06:00 +20°C° 0 mm 3 mps 746 mmHg 78%
    07:00 +21°C° 0 mm 3 mps 747 mmHg 76%
    08:00 +22°C° 0 mm 3 mps 747 mmHg 70%
    09:00 +25°C° 0 mm 3 mps 747 mmHg 65%
    10:00 +26°C° 0 mm 3 mps 747 mmHg 60%
    11:00 +27°C° 0 mm 4 mps 747 mmHg 56%
    12:00 +28°C° 0 mm 4 mps 747 mmHg 53%
    13:00 +29°C° 0 mm 4 mps 746 mmHg 50%
    14:00 +29°C° 0 mm 4 mps 746 mmHg 50%
    15:00 +29°C° 0 mm 4 mps 746 mmHg 50%
    16:00 +29°C° 0 mm 4 mps 746 mmHg 50%
    17:00 +27°C° 0 mm 4 mps 747 mmHg 56%
    18:00 +26°C° 0 mm 3 mps 747 mmHg 61%
    19:00 +25°C° 0 mm 2 mps 747 mmHg 67%
    20:00 +24°C° 0 mm 2 mps 747 mmHg 68%
    21:00 +23°C° 0 mm 2 mps 748 mmHg 70%
    22:00 +22°C° 0 mm 1 mps 748 mmHg 72%
    23:00 +21°C° 0 mm 1 mps 748 mmHg 74%

    Day after tomorrow, 24 July, Tuesday

    Time Temperature Precipitation Wind Pressure Humidity
    00:00 +19°C° 0 mm 2 mps 748 mmHg 77%
    01:00 +19°C° 0 mm 2 mps 748 mmHg 79%
    02:00 +18°C° 0 mm 2 mps 748 mmHg 82%
    03:00 +18°C° 0 mm 2 mps 748 mmHg 85%
    04:00 +17°C° 0 mm 2 mps 748 mmHg 88%
    05:00 +19°C° 0 mm 2 mps 748 mmHg 84%
    06:00 +20°C° 0 mm 2 mps 748 mmHg 81%
    07:00 +21°C° 0 mm 3 mps 749 mmHg 78%
    08:00 +24°C° 0 mm 3 mps 748 mmHg 72%
    09:00 +25°C° 0 mm 3 mps 748 mmHg 65%
    10:00 +26°C° 0 mm 3 mps 748 mmHg 59%
    11:00 +27°C° 0.1 mm 3 mps 748 mmHg 57%
    12:00 +28°C° 0.1 mm 3 mps 748 mmHg 54%
    13:00 +28°C° 0.1 mm 3 mps 747 mmHg 51%
    14:00 +28°C° 0 mm 3 mps 747 mmHg 51%
    15:00 +29°C° 0 mm 3 mps 747 mmHg 51%
    16:00 +29°C° 0 mm 3 mps 747 mmHg 51%
    17:00 +27°C° 0 mm 3 mps 747 mmHg 57%
    18:00 +26°C° 0 mm 2 mps 747 mmHg 62%
    19:00 +25°C° 0 mm 2 mps 746 mmHg 67%
    20:00 +24°C° 0 mm 1 mps 747 mmHg 70%
    21:00 +23°C° 0 mm 1 mps 747 mmHg 73%
    22:00 +21°C° 0 mm 1 mps 747 mmHg 76%
    23:00 +21°C° 0 mm 1 mps 747 mmHg 78%

    25 July, Wednesday

    Time Temperature Precipitation Wind Pressure Humidity
    00:00 +21°C° 0 mm 1 mps 747 mmHg 80%
    01:00 +20°C° 0 mm 1 mps 747 mmHg 81%
    02:00 +20°C° 0 mm 1 mps 747 mmHg 83%
    03:00 +19°C° 0 mm 1 mps 747 mmHg 86%
    04:00 +18°C° 0 mm 2 mps 747 mmHg 88%
    05:00 +19°C° 0 mm 2 mps 747 mmHg 85%
    06:00 +21°C° 0 mm 2 mps 747 mmHg 81%
    07:00 +23°C° 0 mm 2 mps 747 mmHg 78%
    08:00 +24°C° 0.9 mm 3 mps 747 mmHg 74%
    09:00 +25°C° 0.9 mm 3 mps 747 mmHg 71%
    10:00 +26°C° 0.9 mm 3 mps 747 mmHg 67%
    11:00 +27°C° 0.4 mm 3 mps 747 mmHg 63%
    12:00 +28°C° 0.4 mm 3 mps 746 mmHg 59%
    13:00 +28°C° 0.4 mm 3 mps 746 mmHg 55%
    14:00 +28°C° 0 mm 3 mps 746 mmHg 54%
    15:00 +29°C° 0 mm 3 mps 746 mmHg 53%
    16:00 +29°C° 0 mm 3 mps 746 mmHg 53%
    17:00 +28°C° 0 mm 3 mps 746 mmHg 57%
    18:00 +26°C° 0 mm 2 mps 746 mmHg 62%
    19:00 +25°C° 0 mm 2 mps 746 mmHg 67%
    20:00 +24°C° 0 mm 1 mps 746 mmHg 69%
    21:00 +23°C° 0 mm 1 mps 746 mmHg 71%
    22:00 +22°C° 0 mm 1 mps 746 mmHg 72%
    23:00 +21°C° 0 mm 1 mps 746 mmHg 75%

    26 July, Thursday

    Time Temperature Precipitation Wind Pressure Humidity
    00:00 +21°C° 0 mm 1 mps 747 mmHg 78%
    01:00 +20°C° 0 mm 1 mps 747 mmHg 80%
    02:00 +20°C° 0 mm 1 mps 747 mmHg 82%
    03:00 +20°C° 0 mm 1 mps 747 mmHg 85%
    04:00 +19°C° 0 mm 1 mps 747 mmHg 87%
    05:00 +19°C° 0 mm 2 mps 747 mmHg 83%
    06:00 +21°C° 0 mm 2 mps 747 mmHg 79%
    07:00 +23°C° 0 mm 2 mps 747 mmHg 75%
    08:00 +24°C° 0 mm 2 mps 747 mmHg 70%
    09:00 +26°C° 0 mm 3 mps 747 mmHg 64%
    10:00 +27°C° 0 mm 3 mps 747 mmHg 59%
    11:00 +28°C° 0 mm 3 mps 747 mmHg 55%
    12:00 +29°C° 0 mm 3 mps 747 mmHg 51%
    13:00 +29°C° 0 mm 4 mps 747 mmHg 47%
    14:00 +29°C° 0 mm 4 mps 747 mmHg 47%
    15:00 +29°C° 0 mm 4 mps 747 mmHg 47%
    16:00 +29°C° 0 mm 4 mps 747 mmHg 47%
    17:00 +28°C° 0 mm 3 mps 747 mmHg 52%
    18:00 +27°C° 0 mm 2 mps 747 mmHg 58%
    19:00 +26°C° 0 mm 2 mps 747 mmHg 64%
    20:00 +24°C° 0 mm 2 mps 747 mmHg 67%
    21:00 +23°C° 0 mm 2 mps 747 mmHg 70%
    22:00 +21°C° 0 mm 2 mps 748 mmHg 73%
    23:00 +21°C° 0 mm 2 mps 748 mmHg 77%

    27 July, Friday

    Time Temperature Precipitation Wind Pressure Humidity
    00:00 +20°C° 0 mm 2 mps 748 mmHg 80%
    01:00 +20°C° 0 mm 2 mps 748 mmHg 84%
    02:00 +19°C° 0 mm 2 mps 748 mmHg 87%
    03:00 +19°C° 0 mm 2 mps 748 mmHg 90%
    04:00 +19°C° 0 mm 2 mps 748 mmHg 93%
    05:00 +20°C° 0 mm 2 mps 748 mmHg 89%
    06:00 +21°C° 0 mm 2 mps 748 mmHg 86%
    07:00 +23°C° 0 mm 2 mps 748 mmHg 83%
    08:00 +24°C° 0.1 mm 2 mps 748 mmHg 78%
    09:00 +26°C° 0.1 mm 2 mps 748 mmHg 72%
    10:00 +27°C° 0.1 mm 2 mps 747 mmHg 67%
    11:00 +28°C° 0.1 mm 2 mps 747 mmHg 63%
    12:00 +29°C° 0.1 mm 2 mps 747 mmHg 59%
    13:00 +29°C° 0.1 mm 2 mps 747 mmHg 56%
    14:00 +30°C° 0.1 mm 2 mps 746 mmHg 55%
    15:00 +30°C° 0.1 mm 2 mps 746 mmHg 55%
    16:00 +30°C° 0.1 mm 2 mps 746 mmHg 55%
    17:00 +29°C° 0.2 mm 1 mps 746 mmHg 60%
    18:00 +27°C° 0.2 mm 1 mps 746 mmHg 66%
    19:00 +26°C° 0.2 mm 1 mps 746 mmHg 71%
    20:00 +26°C° 0.8 mm 1 mps 746 mmHg 73%
    21:00 +25°C° 0.8 mm 1 mps 746 mmHg 76%
    22:00 +24°C° 0.8 mm 1 mps 746 mmHg 79%
    23:00 +23°C° 0.5 mm 1 mps 746 mmHg 81%
    Show more